H-2A R/B, 27369

Orbit data source: Space-Track

H-2A R/B, 27369 is space debris in HEO originally from a launch on Mon, 04 Feb 2002 UTC launched from the Tanegashima Space Center (TNSTA). Debris objects in space refer to the collection of defunct objects orbiting the Earth. Examples of debris include non-operational satellites, rocket bodies, and fragments generated from explosions, collisions, or faulty payload assembly.

Loading next visibility...
Identifier
27369, 2002-003C
Orbit
HEO
Country
Flag of JPJP / JPN
Related business
Manufacturer
Unknown
Mission
Spacecraft
Bus & Motor
H-2A STAGE 2, Unknown motor
Mass
4,000 kg wet, 4,000 kg dry
Launch date (UTC)
2002-02-04 (24 years ago)
Launch vehicle
Unknown
Launch site
Tanegashima Space Center (TNSTA)
Object type
Payload
Rocket body
Debris
Shape & HBR
Cyl, 4.6 m
Radar Cross Section
35.186 m², Large (>1 m²)

Expand to show TLE details & history
Last TLE update: 1 day ago

TLE from 1 day ago
0 H-2A R/B
1 27369U 02003C   25260.58261323 -.00000111  00000-0  00000-0 0  9991
2 27369  23.7086 234.0968 6882349  87.4864 343.1026  2.37190006204030
Epoch: 2025-09-17T13:58Z
TLE epoch observation values (Epoch: 2025-09-17T13:58:57.783Z)
Latitude
0.00004°
Longitude
27.48271°
Altitude
5,749.37 km
Speed
6.996 km/s
True Right ascension
15h 35m 55s
True Declination
0° 00' 00"
Sunlit
Object was in daylight at epoch
Visualization orbit readout
Latitude
Unknown
Longitude
Unknown
Altitude
Unknown
Speed
Unknown
Apparent Right ascension
Unknown
Apparent Declination
Unknown
Sunlit
N/A
Visualization observer readout
Local Sidereal Time
07:18:24
Azimuth
Unknown
Elevation
Unknown
Doppler factor
Unknown
Orbital elements
Apogee altitude
33,724.352 km
Perigee altitude
1,027.56 km
Semi-major axis
23,754.093 km
Eccentricity
0.68823
Inclination
23.7086°
RAAN
234.0968°
Arg. of periapsis
87.4864°
True anomaly
272.71483°
Mean anomaly
343.1026°
Eccentric anomaly
315.4287°
Mean motion
0.59284 °/min
Orbital period
607.25 mins
BSTAR
0
Loading maneuver chart data...
Computing Atmospheric mass density...
Loading historical data...
Loading historical data...
Loading historical data...
Loading historical data...
Loading historical data...
Loading historical data...
Loading historical data...
Other satellites on launch #3 in the year 2002 (2002-02-04 UTC)

Documentation

Showing up to 5 results
|